Regional Weather Roundup
Issued by NWS Upton, NY

Current Version | Previous Version | Text Only | Print | Product List | Glossary Off
Versions: 1 2 3 4 5 6 7 8 9 10 11 12 13 14 15 16 17 18 19 20 21 22 23 24 25 26 27 28 29 30 31 32 33 34 35 36 37 38 39 40 41 42 43 44 45 46 47 48 49 50
411 ASUS41 KOKX 261204 RWROKX REGIONAL WEATHER ROUNDUP NATIONAL WEATHER SERVICE NEW YORK NY 800 AM EDT FRI AUG 26 2016 NOTE: "FAIR" INDICATES FEW OR NO CLOUDS BELOW 12,000 FEET WITH NO SIGNIFICANT WEATHER AND/OR OBSTRUCTIONS TO VISIBILITY. NYZ071-072-176-178-NJZ106-104-261300- NEW YORK CITY METRO AREA CITY SKY/WX TMP DP RH WIND PRES REMARKS Central Park NOT AVBL LaGuardia APRT CLOUDY 79 71 76 SW10 29.98S Kennedy INTL PTSUNNY 76 71 85 SW8 30.01R Newark/Liberty PTSUNNY 77 71 82 SW10 29.99R Bronx Bot Gard N/A 77 70 78 SW10 30.01R Wall St Helipt PTSUNNY 77 72 83 W7 30.00S Teterboro PTSUNNY 77 70 79 SW6 29.98R $$ NYZ177-179-078>081-261300- LONG ISLAND NEW YORK CITY SKY/WX TMP DP RH WIND PRES REMARKS Farmingdale MOSUNNY 77 70 79 SW10 30.00S MacArthur/ISP PTSUNNY 77 71 82 SW13 29.99S Shirley MOSUNNY 76 72 87 SW10G20 30.01R Riverhead NOT AVBL Westhampton SUNNY 77 71 82 SW12G17 30.02S Southampton N/A 75 72 88 W9 29.97R Bridgehampton N/A 75 72 88 W1 29.99S East Hampton FAIR 76 72 86 SW10G17 30.00R Montauk N/A 76 72 87 SW10G16 30.01S $$ NYZ052-065-067-261300- HUDSON VALLEY CITY SKY/WX TMP DP RH WIND PRES REMARKS White Plains CLOUDY 76 71 85 W3 30.00R Newburgh PTSUNNY 75 73 94 W9 30.01R Montgomery CLOUDY 74 72 93 SW5 29.99R FOG Poughkeepsie PTSUNNY 74 71 91 SW6 29.97R Albany PTSUNNY 73 71 93 S6 29.96S FOG $$ NJZ001-105-106-008-010-013-015-019>022-104-261300- NEW JERSEY CITY SKY/WX TMP DP RH WIND PRES REMARKS Newark/Liberty PTSUNNY 77 71 82 SW10 29.99R Teterboro PTSUNNY 77 70 79 SW6 29.98R Caldwell CLOUDY 76 71 85 CALM 30.00R Morristown PTSUNNY 75 72 88 W3 30.00R Somerville PTSUNNY 73 71 93 MISG 29.99S FOG Linden FAIR 76 70 80 W7 30.01S Sussex MOSUNNY 73 72 96 SW3 30.01R FOG Abdover N/A 74 72 93 CALM 30.03R Trenton CLOUDY 76 71 85 W7 30.01R Millville MOSUNNY 78 76 93 W9 30.04R Atlantic City SUNNY 77 72 84 SW7 30.03R Wrightstown NOT AVBL Toms River MOSUNNY 75 72 90 SW8 30.02S Belmar PTSUNNY 74 72 93 SW8 30.02S $$ PAZ047>061-062-071-261300- EASTERN PENNSYLVANIA CITY SKY/WX TMP DP RH WIND PRES REMARKS Philadelphia CLOUDY 77 73 87 SW8 30.02R Allentown MOSUNNY 76 72 87 W5 30.03R FOG Scranton CLOUDY 75 72 90 SW5 30.05R $$ CTZ002-004>006-009-010-012-RIZ004-006-007-MAZ004-011-015-261300- SOUTHERN NEW ENGLAND IN CT CITY SKY/WX TMP DP RH WIND PRES REMARKS Bradley INTL CLOUDY 74 70 87 S8 29.97S Hartford PTSUNNY 77 72 84 S7 29.96S Danbury CLOUDY 74 71 91 SW8 30.00R Wtrbury/Oxford PTSUNNY 72 66 83 SW7 30.01 FOG Bridgeport CLOUDY 77 70 79 SW10 29.98S Meriden PTSUNNY 75 70 84 S5 29.98S New Haven CLOUDY 76 71 85 SW6 29.99R Chester FAIR 75 72 88 SW7 30.00S Groton MOSUNNY 76 71 85 SW8 29.98S Wilimantic CLOUDY 75 72 90 S5 29.98F IN RI CITY SKY/WX TMP DP RH WIND PRES REMARKS Providence CLOUDY 75 70 84 SW8 29.98S Block Island MOSUNNY 76 72 87 SW17G23 30.01S Westerly MOSUNNY 77 69 76 SW9 30.00S IN MA CITY SKY/WX TMP DP RH WIND PRES REMARKS Boston CLOUDY 76 71 85 SW12 29.95F Worcester FOG 70 68 93 SW9 29.99S VSB 1 Westfield CLOUDY 71 69 93 CALM 29.97R Provincetown CLOUDY 74 71 91 SW10 29.98S Nantucket SUNNY 73 69 87 SW13 30.02R $$ ANZ330-335-338-340-345-350-353-355-261300- COASTAL MARINE OBSERVATIONS STATION/POSITION TIME SKY/WX TEMP WIND PRES VSBY WAVE AIR SEA DIR/SP/G HT/PER (UTC) (F) (DEG/KT/KT) (MB) (MI) (FT/S) NY HARB ENTRANCE 1050 75 72 210/ 12/ 14 1015.5 3/ 5 20S FIRE ISLAND 1050 76 74 220/ 14/ 16 1015.7 4/ 6 GREAT SOUTH BAY 1115 76 78 240/ 12/ 14 N/A 23 SSW MONTAUK P 1050 76 74 220/ 16/ 17 1016.5 4/ 6 15 E BARNEGAT LI 1100 74 N/A 4/ 5 HUDSON CANYON 1050 79 78 1017.0 4/ 6 KINGS POINT 1100 75 76 1015.1 EXECUTION ROCKS 1100 76 180/ 10/ 12 N/A CENTRAL LI SOUND 1100 76 75 200/ 12/ 16 N/A 2/ 3 EASTERN LI SOUND 1100 73 70 220/ 12/ 16 N/A ROBBINS REEF 1106 75 190/ 4/ 7 1014.8 $$ >>>>>>>>>>>>>>>>>>>>>>>>>>>> KEY <<<<<<<<<<<<<<<<<<<<<<<<<<< > < > SKY/WX - Sky Condition/Present Weather < > TMP - Temperature in Fahrenheit < > DP - Dew Point in Fahrenheit < > RH - Relative Humidity in Percent < > WIND - Direction (from) and Speed in MPH < > PRES - Mean Sea Level Pressure (inches of Hg) < > WCI - Wind Chill Index < > VSB - VISIBILITY IN MILES < > HX - HEAT INDEX < > TC - TEMPERATURE IN CELSIUS < > VRB - VARIABLE WIND DIRECTION < > < >>>>>>>>>>>>>>>>>>>>>>>>>>>> KEY <<<<<<<<<<<<<<<<<<<<<<<<<<<

USA.gov is the U.S. government's official web portal to all federal, state and local government web resources and services.